Regional Weather Roundup
Issued by NWS

Home | Current Version | Previous Version | Text Only | Print | Product List | Glossary On
Versions: 1 2 3 4 5 6 7 8 9 10 11 12 13 14 15 16 17 18 19 20 21 22 23 24 25 26 27
000
ASUS46 KPQR 270610
RWROR

OREGON REGIONAL WEATHER ROUNDUP
NATIONAL WEATHER SERVICE PORTLAND OR
1000 PM PST SUN FEB 26 2017

NOTE: "FAIR" INDICATES FEW OR NO CLOUDS BELOW 12,000 FEET WITH
NO SIGNIFICANT WEATHER AND/OR OBSTRUCTIONS TO VISIBILITY.

ORZ001>013-270700-
NORTHWEST OREGON


CITY           SKY/WX    TMP DP  RH WIND       PRES   REMARKS
ASTORIA        MOCLDY    33  31  92 E3        29.77R
6HR MIN TEMP:  33; 6HR MAX TEMP:  45; 6HR PCP: TRACE;

NEWPORT        LGT RAIN  36  34  93 CALM      29.80S
PORTLAND       CLOUDY    38  35  89 S5        29.78R WCI  34
6HR MIN TEMP:  38; 6HR MAX TEMP:  39; 6HR PCP: TRACE;

VANCOUVER WA   CLOUDY    39  38  96 CALM      29.78R
6HR MIN TEMP:  38; 6HR MAX TEMP:  40;

SCAPPOOSE      CLOUDY    38  37  97 CALM      29.78R
6HR MIN TEMP:  38; 6HR MAX TEMP:  40; 6HR PCP:  0.03;

HILLSBORO      CLOUDY    38  37  97 CALM      29.77R
6HR MIN TEMP:  36; 6HR MAX TEMP:  42; 6HR PCP:  0.01;

AURORA         CLOUDY    39  36  89 CALM      29.78R
6HR MIN TEMP:  37; 6HR MAX TEMP:  39; 6HR PCP:  0.16;

MCMINNVILLE    LGT RAIN  39  35  86 CALM      29.78R
6HR MIN TEMP:  38; 6HR MAX TEMP:  42; 6HR PCP:  0.01;

SALEM          CLOUDY    38  34  85 S8        29.77R WCI  32
6HR MIN TEMP:  37; 6HR MAX TEMP:  40; 6HR PCP: TRACE;

CORVALLIS        N/A     34  30  86 S3        29.78R
EUGENE         CLOUDY    36  35  96 SW6       29.79R WCI  31
6HR MIN TEMP:  36; 6HR MAX TEMP:  40; 6HR PCP:  0.07;

$$

ORZ021-028-270700-
SOUTHWEST OREGON


CITY           SKY/WX    TMP DP  RH WIND       PRES   REMARKS
NORTH BEND     CLOUDY    39  37  93 SE8       29.83R WCI  34
6HR MIN TEMP:  37; 6HR MAX TEMP:  45; 6HR PCP:  0.20;

BROOKINGS      LGT RAIN  37  36  96 VRB5      29.86S WCI  33
ROSEBURG       CLOUDY    36  34  92 SE6       29.80S WCI  31
6HR MIN TEMP:  35; 6HR MAX TEMP:  41; 6HR PCP:  0.26;

SEXTON SUMMIT  SNOW      27  25  92 SW8       29.69R VSB 1/4 WCI  19
6HR MIN TEMP:  27; 6HR MAX TEMP:  28; 6HR PCP:  0.06;

MEDFORD        MOCLDY    36  31  82 CALM      29.80R
6HR MIN TEMP:  36; 6HR MAX TEMP:  43; 6HR PCP: TRACE;

$$

ORZ014>016-041-270700-
COLUMBIA GORGE


CITY           SKY/WX    TMP DP  RH WIND       PRES   REMARKS
TROUTDALE      CLOUDY    39  37  92 CALM      29.78R
6HR MIN TEMP:  38; 6HR MAX TEMP:  41; 6HR PCP:  0.05;

THE DALLES     PTCLDY    37  31  78 W3        29.75R
6HR MIN TEMP:  35; 6HR MAX TEMP:  43;

$$

ORZ029>031-041-044-049-050-061>064-502-503-505>511-270700-
EASTERN OREGON


CITY           SKY/WX    TMP DP  RH WIND       PRES   REMARKS
REDMOND        PTCLDY    24  18  77 CALM      29.65R
6HR MIN TEMP:  24; 6HR MAX TEMP:  39;

BEND           PTCLDY    28  19  69 W5        29.64R WCI  23
PRINEVILLE     PTCLDY    27  21  80 CALM      29.65R
KLAMATH FALLS  PTCLDY    21  18  88 S7        29.68S WCI  12
6HR MIN TEMP:  21; 6HR MAX TEMP:  30; 6HR PCP: TRACE;

LAKEVIEW       CLOUDY    23  16  74 SW7       29.67S WCI  15
HERMISTON      LGT RAIN  36  36 100 CALM      29.72R
6HR MIN TEMP:  36; 6HR MAX TEMP:  42; 6HR PCP:  0.06;

PENDLETON      LGT SNOW  32  32 100 NW7       29.67R VSB 3/4 WCI  26
6HR MIN TEMP:  32; 6HR MAX TEMP:  36; 6HR PCP:  0.07;

JOHN DAY       CLOUDY    26  24  93 CALM      29.63S
MEACHAM        SNOW      28  24  85 CALM      29.56F VSB 1/2
6HR MIN TEMP:  27; 6HR MAX TEMP:  30; 6HR PCP:  0.06;

LA GRANDE      CLOUDY    32  25  74 S7        29.62S WCI  26
6HR MIN TEMP:  32; 6HR MAX TEMP:  34;

BAKER CITY     CLOUDY    27  25  92 E12       29.61F WCI  17
6HR MIN TEMP:  27; 6HR MAX TEMP:  33; 6HR PCP: TRACE;

BURNS          MOCLDY    20  18  92 SW3       29.63S
6HR MIN TEMP:  19; 6HR MAX TEMP:  30; 6HR PCP:  0.02;

ROME             N/A     29  23  78 W10       29.63R WCI  20
6HR MIN TEMP:  22; 6HR MAX TEMP:  34;

ONTARIO        CLOUDY    31  28  89 N5        29.69F WCI  26
6HR MIN TEMP:  31; 6HR MAX TEMP:  35;

$$




USA.gov is the U.S. government's official web portal to all federal, state and local government web resources and services.